📊 Raw Sensor Data
Showing records 44276 to 44300 of 85,034 total
| ID | Distance (ft) | Battery V | Battery A | Int Temp (°F) | Int Humid (%) | Ext Temp (°F) | Solar V | RSSI | SNR | Time Stamp |
|---|---|---|---|---|---|---|---|---|---|---|
| 40771 | 15.3 | 3.96 | 0 | 90 | 41 | 84 | 5.10 | -68 | 8 | 05/16/2025 01:45 PM |
| 40770 | 15.4 | 4.12 | 0 | 88 | 42 | 79 | 5.10 | -67 | 8 | 05/16/2025 01:30 PM |
| 40769 | 15.4 | 3.96 | 5 | 89 | 41 | 80 | 5.10 | -68 | 8 | 05/16/2025 01:15 PM |
| 40768 | 15.4 | 3.96 | 5 | 88 | 41 | 80 | 5.10 | -68 | 8 | 05/16/2025 01:00 PM |
| 40767 | 15.3 | 3.96 | 0 | 86 | 42 | 80 | 5.10 | -69 | 8 | 05/16/2025 12:45 PM |
| 40766 | 15.3 | 3.96 | 5 | 85 | 42 | 78 | 5.10 | -68 | 7 | 05/16/2025 12:30 PM |
| 40765 | 15.4 | 3.96 | 5 | 85 | 42 | 78 | 5.10 | -69 | 8 | 05/16/2025 12:15 PM |
| 40764 | 15.4 | 3.96 | 5 | 85 | 41 | 84 | 5.10 | -69 | 8 | 05/16/2025 12:00 PM |
| 40763 | 15.4 | 3.96 | 5 | 83 | 41 | 83 | 5.10 | -67 | 8 | 05/16/2025 11:45 AM |
| 40762 | 15.4 | 3.96 | 5 | 81 | 42 | 81 | 5.10 | -68 | 7 | 05/16/2025 11:30 AM |
| 40761 | 15.4 | 3.96 | 5 | 80 | 41 | 76 | 5.10 | -68 | 8 | 05/16/2025 11:15 AM |
| 40760 | 15.4 | 3.96 | 0 | 80 | 41 | 78 | 5.10 | -68 | 8 | 05/16/2025 11:00 AM |
| 40759 | 15.5 | 3.96 | 0 | 78 | 40 | 75 | 5.10 | -69 | 8 | 05/16/2025 10:45 AM |
| 40758 | 15.5 | 3.96 | 0 | 76 | 41 | 78 | 5.10 | -69 | 8 | 05/16/2025 10:30 AM |
| 40757 | 15.5 | 3.96 | 5 | 74 | 41 | 77 | 5.10 | -68 | 8 | 05/16/2025 10:15 AM |
| 40756 | 15.5 | 3.96 | 0 | 74 | 41 | 77 | 5.10 | -68 | 8 | 05/16/2025 10:00 AM |
| 40755 | 15.5 | 3.96 | 5 | 71 | 42 | 72 | 5.10 | -67 | 8 | 05/16/2025 09:45 AM |
| 40754 | 15.6 | 3.96 | 5 | 70 | 42 | 69 | 5.10 | -69 | 8 | 05/16/2025 09:30 AM |
| 40753 | 15.6 | 4.13 | 0 | 70 | 41 | 68 | 5.10 | -68 | 7 | 05/16/2025 09:15 AM |
| 40752 | 15.6 | 3.96 | 0 | 68 | 42 | 70 | 5.10 | -68 | 8 | 05/16/2025 09:00 AM |
| 40751 | 15.6 | 3.96 | 5 | 67 | 41 | 71 | 5.10 | -69 | 9 | 05/16/2025 08:45 AM |
| 40750 | 15.6 | 3.96 | 6 | 66 | 41 | 71 | 5.10 | -69 | 8 | 05/16/2025 08:30 AM |
| 40749 | 15.6 | 3.96 | 6 | 65 | 41 | 71 | 5.10 | -68 | 8 | 05/16/2025 08:15 AM |
| 40748 | 15.6 | 3.96 | 0 | 63 | 40 | 69 | 5.10 | -68 | 8 | 05/16/2025 08:00 AM |
| 40747 | 15.5 | 3.98 | 5 | 61 | 40 | 61 | 5.10 | -67 | 8 | 05/16/2025 07:45 AM |